KF6ILA Weather Reports


Display with metric or nautical units.
time (UTC)temp
F
wind
direction
speed
MPH
gust
MPH
rain 1hr
in
rain 24hr
in
rain mn
in
humidity
%
barometer
mb
20240525103324 42 273 23.0 36.0 0.00 0.00 0.00 100 1009.0
20240525102827 42 276 24.0 37.0 0.00 0.00 0.00 100 1009.0
20240525102331 42 275 25.0 41.0 0.00 0.00 0.00 100 1009.0
20240525101834 42 274 28.0 41.0 0.00 0.00 0.00 100 1009.0
20240525101336 43 273 29.0 38.0 0.00 0.00 0.00 100 1008.8
20240525100839 42 271 27.0 38.0 0.00 0.00 0.00 100 1008.7
20240525100343 42 270 29.0 39.0 0.00 0.00 0.00 100 1008.7
20240525095845 42 272 28.0 39.0 0.00 0.00 0.00 100 1008.7
20240525095348 43 275 27.0 38.0 0.00 0.00 0.00 100 1008.8
20240525094851 43 276 29.0 38.0 0.00 0.00 0.00 100 1008.7
20240525094354 43 267 26.0 39.0 0.00 0.00 0.00 100 1008.7
20240525093857 43 274 29.0 39.0 0.00 0.00 0.00 100 1008.7
20240525093400 43 274 28.0 42.0 0.00 0.00 0.00 100 1008.2
20240525092903 43 269 31.0 43.0 0.00 0.00 0.00 100 1008.2
20240525091910 43 272 31.0 42.0 0.00 0.00 0.00 100 1008.7
20240525091413 43 272 26.0 37.0 0.00 0.00 0.00 100 1008.7
20240525090915 43 273 28.0 38.0 0.00 0.00 0.00 100 1008.6
20240525090418 43 274 29.0 40.0 0.00 0.00 0.00 100 1008.4
20240525085921 43 278 28.0 40.0 0.00 0.00 0.00 100 1008.6
20240525085424 43 276 29.0 39.0 0.00 0.00 0.00 100 1008.7
20240525084927 43 271 27.0 38.0 0.00 0.00 0.00 100 1008.8
20240525084430 43 274 27.0 38.0 0.00 0.00 0.00 100 1008.8
20240525083933 43 275 24.0 35.0 0.00 0.00 0.00 100 1008.7
20240525083436 43 271 25.0 37.0 0.00 0.00 0.00 100 1008.9
20240525082939 43 269 25.0 39.0 0.00 0.00 0.00 100 1008.8
20240525082442 43 276 30.0 40.0 0.00 0.00 0.00 100 1008.8
20240525081945 43 270 26.0 40.0 0.00 0.00 0.00 100 1008.8
20240525081448 43 263 27.0 35.0 0.00 0.00 0.00 100 1008.8
20240525080951 43 262 25.0 35.0 0.00 0.00 0.00 100 1008.8
20240525080454 43 260 25.0 36.0 0.00 0.00 0.00 100 1009.0
20240525075957 43 264 24.0 36.0 0.00 0.00 0.00 100 1009.0
20240525075500 43 265 23.0 38.0 0.00 0.00 0.00 100 1009.1
20240525075004 43 270 23.0 38.0 0.00 0.00 0.00 100 1009.0
20240525074506 43 274 25.0 34.0 0.00 0.00 0.00 100 1009.0
20240525074009 43 272 23.0 34.0 0.00 0.00 0.00 100 1009.2
20240525073512 43 272 24.0 35.0 0.00 0.00 0.00 100 1010.0
20240525073015 43 277 22.0 35.0 0.00 0.00 0.00 100 1010.0
20240525072518 43 274 24.0 34.0 0.00 0.00 0.00 100 1010.0
20240525072022 43 271 23.0 34.0 0.00 0.00 0.00 100 1010.1
20240525071524 43 273 25.0 36.0 0.00 0.00 0.00 100 1009.8
20240525071028 43 270 26.0 36.0 0.00 0.00 0.00 99 1010.0
20240525070530 43 276 26.0 34.0 0.00 0.00 0.00 100 1010.1
20240525070033 43 273 23.0 34.0 0.00 0.00 0.00 100 1009.9
20240525065536 43 270 23.0 34.0 0.00 0.00 0.00 99 1009.8
20240525065040 43 270 22.0 35.0 0.00 0.00 0.00 100 1010.0
20240525064543 43 268 23.0 36.0 0.00 0.00 0.00 99 1010.0
20240525064045 43 274 25.0 37.0 0.00 0.00 0.00 99 1010.0
20240525063549 43 273 25.0 37.0 0.00 0.00 0.00 99 1009.8
20240525063051 43 279 26.0 35.0 0.00 0.00 0.00 99 1009.8
20240525062554 43 277 25.0 36.0 0.00 0.00 0.00 99 1009.9
20240525062057 43 267 26.0 36.0 0.00 0.00 0.00 99 1009.9
20240525061601 44 274 27.0 36.0 0.00 0.00 0.00 99 1009.6
20240525061103 44 274 25.0 36.0 0.00 0.00 0.00 99 1009.8
20240525060607 44 276 21.0 33.0 0.00 0.00 0.00 99 1009.7
20240525060109 44 275 25.0 37.0 0.00 0.00 0.00 99 1009.8
20240525055612 44 280 26.0 37.0 0.00 0.00 0.00 99 1009.8
20240525055115 44 277 25.0 36.0 0.00 0.00 0.00 99 1009.6
20240525054121 44 278 26.0 33.0 0.00 0.00 0.00 99 1009.9
20240525053624 45 275 24.0 32.0 0.00 0.00 0.00 99 1009.8
20240525053127 45 275 24.0 32.0 0.00 0.00 0.00 98 1009.9
20240525052708 45 277 26.0 35.0 0.00 0.00 0.00 99 1010.0
20240525052630 45 277 26.0 35.0 0.00 0.00 0.00 99 1010.0
20240525052133 45 272 24.0 35.0 0.00 0.00 0.00 98 1010.0
20240525051636 45 274 26.0 36.0 0.00 0.00 0.00 98 1009.8
20240525051139 45 276 27.0 36.0 0.00 0.00 0.00 98 1009.9
20240525050642 45 271 24.0 34.0 0.00 0.00 0.00 98 1009.8
20240525050146 45 266 25.0 33.0 0.00 0.00 0.00 98 1009.8
20240525045649 45 265 23.0 33.0 0.00 0.00 0.00 98 1009.4
20240525045151 46 280 24.0 33.0 0.00 0.00 0.00 98 1009.9
20240525044654 46 276 22.0 33.0 0.00 0.00 0.00 98 1009.9
20240525044157 46 273 25.0 35.0 0.00 0.00 0.00 98 1009.7
20240525043700 46 276 25.0 36.0 0.00 0.00 0.00 98 1009.8
20240525043204 46 274 27.0 36.0 0.00 0.00 0.00 98 1009.7
20240525042209 46 274 24.0 31.0 0.00 0.00 0.00 98 1009.7
20240525041712 46 276 21.0 31.0 0.00 0.00 0.00 98 1009.6
20240525040718 46 274 23.0 33.0 0.00 0.00 0.00 98 1009.5
20240525040221 46 277 21.0 31.0 0.00 0.00 0.00 98 1009.4
20240525035724 46 275 21.0 31.0 0.00 0.00 0.00 98 1009.4
20240525035227 47 278 21.0 31.0 0.00 0.00 0.00 97 1009.4
20240525034730 47 282 24.0 33.0 0.00 0.00 0.00 97 1009.3
20240525034233 47 277 25.0 33.0 0.00 0.00 0.00 97 1009.2
20240525033737 47 287 24.0 32.0 0.00 0.00 0.00 97 1009.2
20240525033239 47 271 23.0 32.0 0.00 0.00 0.00 96 1009.0
20240525032742 47 273 21.0 30.0 0.00 0.00 0.00 96 1009.3
20240525032318 47 276 22.0 32.0 0.00 0.00 0.00 95 1009.3
20240525032246 47 276 22.0 32.0 0.00 0.00 0.00 95 1009.3
20240525031748 48 273 23.0 32.0 0.00 0.00 0.00 95 1008.9
20240525031251 48 269 21.0 33.0 0.00 0.00 0.00 95 1009.3
20240525030755 48 268 23.0 33.0 0.00 0.00 0.00 95 1009.2
20240525030257 48 272 22.0 32.0 0.00 0.00 0.00 95 1009.1
20240525025800 48 273 22.0 30.0 0.00 0.00 0.00 95 1009.0
20240525025303 49 275 22.0 33.0 0.00 0.00 0.00 95 1009.0
20240525024806 49 278 20.0 33.0 0.00 0.00 0.00 95 1009.0
20240525024309 49 279 22.0 32.0 0.00 0.00 0.00 94 1008.9
20240525023812 49 273 21.0 31.0 0.00 0.00 0.00 94 1008.9
20240525023315 49 274 21.0 33.0 0.00 0.00 0.00 93 1009.7
20240525022818 49 274 25.0 33.0 0.00 0.00 0.00 91 1009.7
20240525022321 50 278 22.0 31.0 0.00 0.00 0.00 92 1009.3
20240525021824 50 277 20.0 33.0 0.00 0.00 0.00 92 1009.4
20240525021327 50 277 21.0 34.0 0.00 0.00 0.00 91 1009.8
20240525020831 51 281 25.0 34.0 0.00 0.00 0.00 90 1009.7
20240525020333 51 278 22.0 35.0 0.00 0.00 0.00 90 1009.6
20240525015836 51 280 23.0 35.0 0.00 0.00 0.00 90 1009.7
20240525015339 52 278 22.0 33.0 0.00 0.00 0.00 89 1009.5
20240525014842 52 273 19.0 33.0 0.00 0.00 0.00 90 1009.8
20240525014345 52 277 20.0 30.0 0.00 0.00 0.00 89 1009.8
20240525013949 53 277 20.0 30.0 0.00 0.00 0.00 87 1009.8
20240525013848 53 277 20.0 30.0 0.00 0.00 0.00 87 1009.8
20240525013352 53 279 23.0 30.0 0.00 0.00 0.00 87 1009.7
20240525012855 54 278 23.0 30.0 0.00 0.00 0.00 85 1009.9
20240525012357 54 279 21.0 30.0 0.00 0.00 0.00 84 1009.9
20240525011901 54 287 22.0 30.0 0.00 0.00 0.00 83 1009.9
20240525011404 55 277 23.0 30.0 0.00 0.00 0.00 82 1010.0
20240525010907 55 280 22.0 30.0 0.00 0.00 0.00 81 1010.0
20240525010410 55 281 23.0 30.0 0.00 0.00 0.00 79 1010.1
20240525005913 55 285 22.0 30.0 0.00 0.00 0.00 80 1010.0
20240525005415 55 281 20.0 32.0 0.00 0.00 0.00 81 1010.0
20240525004918 55 275 22.0 32.0 0.00 0.00 0.00 80 1010.1
20240525004421 56 279 24.0 31.0 0.00 0.00 0.00 77 1010.3
20240525003924 56 276 23.0 33.0 0.00 0.00 0.00 79 1010.3
20240525003428 56 275 22.0 34.0 0.00 0.00 0.00 79 1010.1
20240525002930 56 275 26.0 34.0 0.00 0.00 0.00 75 1010.3
20240525002433 56 281 25.0 33.0 0.00 0.00 0.00 77 1010.2
20240525001936 56 279 23.0 33.0 0.00 0.00 0.00 76 1010.3
20240525001439 57 275 20.0 30.0 0.00 0.00 0.00 76 1010.2
20240525000942 57 276 23.0 36.0 0.00 0.00 0.00 77 1010.3
20240525000445 57 280 23.0 36.0 0.00 0.00 0.00 75 1010.3
20240524235948 57 271 22.0 30.0 0.00 0.00 0.00 75 1010.5
20240524235451 57 266 17.0 35.0 0.00 0.00 0.00 79 1010.6
20240524234954 57 283 22.0 35.0 0.00 0.00 0.00 77 1010.5
20240524234458 58 284 24.0 31.0 0.00 0.00 0.00 75 1010.5
20240524234000 58 281 21.0 30.0 0.00 0.00 0.00 76 1010.5
20240524233503 58 284 23.0 30.0 0.00 0.00 0.00 71 1010.7
20240524233006 58 280 23.0 31.0 0.00 0.00 0.00 72 1010.8
20240524232509 58 275 19.0 31.0 0.00 0.00 0.00 74 1010.9
20240524232012 58 283 23.0 32.0 0.00 0.00 0.00 71 1010.8
20240524231515 59 275 20.0 32.0 0.00 0.00 0.00 71 1010.6
20240524231018 59 280 24.0 31.0 0.00 0.00 0.00 67 1011.1
20240524230522 60 266 17.0 28.0 0.00 0.00 0.00 72 1010.7
20240524230024 60 273 18.0 30.0 0.00 0.00 0.00 71 1011.0
20240524225527 60 281 21.0 30.0 0.00 0.00 0.00 67 1010.8
20240524225030 60 277 20.0 30.0 0.00 0.00 0.00 66 1010.8
20240524224533 60 283 21.0 30.0 0.00 0.00 0.00 62 1010.8
20240524223539 61 276 18.0 29.0 0.00 0.00 0.00 65 1011.0
20240524223042 61 271 17.0 29.0 0.00 0.00 0.00 67 1010.8
20240524222048 61 286 21.0 28.0 0.00 0.00 0.00 62 1010.8
20240524221551 61 267 18.0 26.0 0.00 0.00 0.00 66 1010.9
20240524221054 61 284 19.0 26.0 0.00 0.00 0.00 63 1010.8
20240524220557 61 271 16.0 24.0 0.00 0.00 0.00 66 1010.9
20240524220100 61 278 18.0 26.0 0.00 0.00 0.00 65 1011.0
20240524215603 61 247 16.0 26.0 0.00 0.00 0.00 65 1011.1
20240524215203 61 268 15.0 25.0 0.00 0.00 0.00 67 1011.1
20240524215106 61 268 15.0 25.0 0.00 0.00 0.00 67 1011.1
20240524214112 61 263 18.0 24.0 0.00 0.00 0.00 66 1011.2
20240524213616 61 267 15.0 26.0 0.00 0.00 0.00 67 1011.4
20240524212621 61 282 16.0 28.0 0.00 0.00 0.00 66 1011.2
20240524212124 61 288 20.0 28.0 0.00 0.00 0.00 65 1011.2
20240524211627 61 279 17.0 25.0 0.00 0.00 0.00 67 1011.5
20240524211130 61 262 14.0 25.0 0.00 0.00 0.00 67 1011.4
20240524210633 61 274 16.0 26.0 0.00 0.00 0.00 68 1011.5
20240524210137 60 254 17.0 28.0 0.00 0.00 0.00 68 1011.6
20240524205640 60 274 17.0 28.0 0.00 0.00 0.00 67 1011.6
20240524205142 60 280 19.0 25.0 0.00 0.00 0.00 68 1011.7
20240524204645 60 263 17.0 25.0 0.00 0.00 0.00 69 1011.6
20240524204148 60 259 15.0 28.0 0.00 0.00 0.00 70 1011.7
20240524203651 60 271 17.0 28.0 0.00 0.00 0.00 69 1011.6
20240524203154 60 279 17.0 28.0 0.00 0.00 0.00 70 1011.6
20240524202658 60 270 14.0 27.0 0.00 0.00 0.00 71 1011.6
20240524202201 60 257 19.0 27.0 0.00 0.00 0.00 71 1011.7
20240524201705 60 271 15.0 26.0 0.00 0.00 0.00 70 1011.8
20240524201206 60 268 15.0 25.0 0.00 0.00 0.00 73 1011.9
20240524200709 59 273 16.0 25.0 0.00 0.00 0.00 73 1011.7
20240524200212 59 264 18.0 26.0 0.00 0.00 0.00 74 1012.1
20240524195715 59 283 18.0 26.0 0.00 0.00 0.00 73 1011.9
20240524195218 60 269 16.0 27.0 0.00 0.00 0.00 73 1012.1
20240524194721 59 279 16.0 27.0 0.00 0.00 0.00 74 1011.8
20240524194224 59 266 16.0 27.0 0.00 0.00 0.00 74 1012.1
20240524193727 59 253 14.0 25.0 0.00 0.00 0.00 75 1012.1
20240524193230 59 268 19.0 28.0 0.00 0.00 0.00 73 1012.1
20240524192734 59 263 16.0 28.0 0.00 0.00 0.00 75 1012.1
20240524192236 59 267 18.0 27.0 0.00 0.00 0.00 74 1012.0
20240524191739 58 252 17.0 28.0 0.00 0.00 0.00 75 1012.0
20240524191242 58 253 17.0 28.0 0.00 0.00 0.00 74 1011.9
20240524190746 58 267 18.0 26.0 0.00 0.00 0.00 74 1011.9
20240524190248 59 250 18.0 30.0 0.00 0.00 0.00 73 1011.9
20240524185751 59 252 20.0 30.0 0.00 0.00 0.00 73 1011.9
20240524185254 58 267 17.0 27.0 0.00 0.00 0.00 75 1011.9
20240524184758 58 255 17.0 27.0 0.00 0.00 0.00 75 1011.9
20240524183803 57 262 19.0 27.0 0.00 0.00 0.00 75 1011.8
20240524182810 57 262 19.0 27.0 0.00 0.00 0.00 75 1011.9
20240524182312 57 257 19.0 27.0 0.00 0.00 0.00 75 1012.0
20240524181815 56 262 17.0 27.0 0.00 0.00 0.00 78 1011.8
20240524181319 55 272 15.0 25.0 0.00 0.00 0.00 80 1011.6
20240524180821 54 272 18.0 25.0 0.00 0.00 0.00 81 1011.8
20240524180324 53 273 17.0 25.0 0.00 0.00 0.00 82 1011.7
20240524175827 53 271 20.0 26.0 0.00 0.00 0.00 82 1011.7
20240524175330 53 275 18.0 26.0 0.00 0.00 0.00 82 1011.5
20240524174834 53 265 15.0 24.0 0.00 0.00 0.00 83 1011.5
20240524174337 53 261 18.0 24.0 0.00 0.00 0.00 83 1011.6
20240524173839 53 261 17.0 26.0 0.00 0.00 0.00 83 1011.6
20240524173342 52 256 17.0 26.0 0.00 0.00 0.00 82 1011.7
20240524172845 52 259 15.0 26.0 0.00 0.00 0.00 82 1011.5
20240524172349 52 258 18.0 26.0 0.00 0.00 0.00 80 1011.4
20240524171851 52 257 18.0 26.0 0.00 0.00 0.00 79 1011.4
20240524170858 53 254 17.0 24.0 0.00 0.00 0.00 75 1011.3
20240524170400 54 257 16.0 24.0 0.00 0.00 0.00 73 1011.3
20240524165904 54 251 16.0 22.0 0.00 0.00 0.00 69 1011.3
20240524165406 55 261 16.0 22.0 0.00 0.00 0.00 68 1011.4
20240524164909 55 260 17.0 24.0 0.00 0.00 0.00 64 1011.3
20240524164412 55 260 16.0 24.0 0.00 0.00 0.00 63 1011.3
20240524163915 56 263 16.0 24.0 0.00 0.00 0.00 61 1011.3
20240524163418 55 268 16.0 24.0 0.00 0.00 0.00 61 1011.4
20240524162921 55 252 15.0 23.0 0.00 0.00 0.00 61 1011.3
20240524162424 55 253 17.0 23.0 0.00 0.00 0.00 62 1011.3
20240524162051 54 248 16.0 24.0 0.00 0.00 0.00 64 1011.3
20240524161927 54 248 16.0 24.0 0.00 0.00 0.00 64 1011.3
20240524161430 53 252 17.0 24.0 0.00 0.00 0.00 66 1011.3
20240524160933 53 249 17.0 24.0 0.00 0.00 0.00 66 1011.4
20240524160436 53 253 17.0 23.0 0.00 0.00 0.00 65 1011.4
20240524155939 54 255 14.0 23.0 0.00 0.00 0.00 64 1011.4
20240524155442 54 252 16.0 23.0 0.00 0.00 0.00 62 1011.4
20240524154945 55 259 15.0 23.0 0.00 0.00 0.00 60 1010.4
20240524154449 55 256 16.0 24.0 0.00 0.00 0.00 57 1010.4
20240524153951 55 258 19.0 24.0 0.00 0.00 0.00 54 1010.4
20240524153454 54 254 17.0 24.0 0.00 0.00 0.00 57 1010.3
20240524152957 53 248 17.0 24.0 0.00 0.00 0.00 65 1010.2
20240524152500 52 243 16.0 24.0 0.00 0.00 0.00 70 1010.2
20240524152003 52 254 16.0 24.0 0.00 0.00 0.00 67 1010.2
20240524151506 52 262 15.0 24.0 0.00 0.00 0.00 63 1010.2
20240524151009 52 248 16.0 24.0 0.00 0.00 0.00 66 1010.2
20240524150512 52 245 16.0 24.0 0.00 0.00 0.00 66 1010.3
20240524150015 53 249 17.0 24.0 0.00 0.00 0.00 61 1010.1
20240524145519 53 245 17.0 23.0 0.00 0.00 0.00 60 1010.0
20240524145022 54 244 14.0 24.0 0.00 0.00 0.00 56 1010.1
20240524144524 54 247 14.0 24.0 0.00 0.00 0.00 53 1010.1
20240524144027 54 255 17.0 24.0 0.00 0.00 0.00 49 1010.1
20240524143530 54 253 16.0 24.0 0.00 0.00 0.00 50 1010.1
20240524143033 53 252 16.0 24.0 0.00 0.00 0.00 48 1010.0
20240524142536 52 249 19.0 24.0 0.00 0.00 0.00 53 1010.0
20240524142039 50 249 18.0 24.0 0.00 0.00 0.00 57 1009.8
20240524141542 48 251 17.0 24.0 0.00 0.00 0.00 63 1009.8
20240524141045 47 252 17.0 24.0 0.00 0.00 0.00 69 1009.8
20240524140548 47 250 18.0 24.0 0.00 0.00 0.00 71 1009.8
20240524140051 48 250 18.0 24.0 0.00 0.00 0.00 69 1009.7
20240524135554 48 248 18.0 24.0 0.00 0.00 0.00 67 1009.7
20240524135057 50 247 19.0 24.0 0.00 0.00 0.00 64 1009.9
20240524134600 52 253 16.0 24.0 0.00 0.00 0.00 53 1009.8
20240524133607 55 260 17.0 27.0 0.00 0.00 0.00 41 1009.8
20240524133109 55 260 18.0 27.0 0.00 0.00 0.00 41 1009.7
20240524132612 56 264 19.0 26.0 0.00 0.00 0.00 39 1009.8
20240524132115 56 263 19.0 26.0 0.00 0.00 0.00 38 1009.8
20240524131618 56 264 17.0 23.0 0.00 0.00 0.00 37 1009.6
20240524131121 56 253 17.0 25.0 0.00 0.00 0.00 36 1009.6
20240524130624 56 269 18.0 25.0 0.00 0.00 0.00 36 1009.7
20240524130127 56 257 19.0 26.0 0.00 0.00 0.00 37 1009.5
20240524125630 56 254 19.0 26.0 0.00 0.00 0.00 36 1009.4
20240524125133 56 268 18.0 25.0 0.00 0.00 0.00 36 1009.6
20240524124636 56 259 18.0 25.0 0.00 0.00 0.00 37 1009.5
20240524124139 56 262 15.0 25.0 0.00 0.00 0.00 38 1009.4
20240524123643 56 262 20.0 25.0 0.00 0.00 0.00 37 1009.5
20240524123236 56 256 20.0 25.0 0.00 0.00 0.00 38 1009.4
20240524123145 56 256 20.0 25.0 0.00 0.00 0.00 38 1009.4
20240524122648 56 259 21.0 25.0 0.00 0.00 0.00 38 1009.5
20240524122151 56 261 18.0 25.0 0.00 0.00 0.00 39 1009.5
20240524121654 55 259 19.0 25.0 0.00 0.00 0.00 39 1009.6
20240524121158 55 258 19.0 25.0 0.00 0.00 0.00 39 1009.6
20240524120700 55 255 18.0 27.0 0.00 0.00 0.00 39 1009.5
20240524120204 56 261 20.0 28.0 0.00 0.00 0.00 39 1009.6
20240524115706 56 263 19.0 28.0 0.00 0.00 0.00 39 1009.7
20240524115209 56 263 20.0 27.0 0.00 0.00 0.00 39 1009.7
20240524114712 55 263 19.0 29.0 0.00 0.00 0.00 39 1009.6
20240524114215 55 260 20.0 30.0 0.00 0.00 0.00 38 1009.6
20240524113718 55 263 21.0 30.0 0.00 0.00 0.00 38 1009.7
20240524113221 55 264 21.0 29.0 0.00 0.00 0.00 38 1009.7
20240524112724 55 262 20.0 29.0 0.00 0.00 0.00 37 1009.9
20240524112227 55 259 21.0 29.0 0.00 0.00 0.00 36 1009.7
20240524111730 55 262 21.0 28.0 0.00 0.00 0.00 35 1009.6
20240524111233 55 259 22.0 28.0 0.00 0.00 0.00 35 1009.5
20240524110739 55 261 21.0 29.0 0.00 0.00 0.00 34 1009.6
20240524110239 55 258 22.0 29.0 0.00 0.00 0.00 34 1009.7
20240524105742 55 263 23.0 28.0 0.00 0.00 0.00 34 1009.7
20240524105246 55 266 22.0 27.0 0.00 0.00 0.00 34 1009.7
20240524104748 55 264 21.0 30.0 0.00 0.00 0.00 34 1009.7
20240524104252 55 266 23.0 30.0 0.00 0.00 0.00 35 1009.8
20240524103754 56 264 24.0 30.0 0.00 0.00 0.00 36 1009.8